Date String (YYYY-MM-DD hh:mm:ss) UTC,Instrument flags,Ambient pressure (hPa),Sample flow (lpm),Bypass flow (lpm),Sample temperature (°C),Ambient temperature (°C),ASC tube jacket temperature (°C),LED temperature (°C),Box temperature (°C),Sample RH (%),Span deviation,Mass concentration (μg/m³),Mass concentration (μg/m³),Mass concentration (μg/m³)
DateTimeUTC,F1_M11,P_M11,Q1_M11,Q2_M11,T1_M11,T2_M11,T3_M11,T4_M11,T5_M11,U1_M11,ZSPAN_M11,X0_M11,X2_M11,X1_M11
2022-08-20 18:00:00,,0830.5,5.01,0.00,30.1,27.8,00.0,38.8,31.8,29.0,0000.0,0017.21,0008.38,0007.19
2022-08-20 18:01:00,,0830.5,5.01,0.00,30.0,27.8,00.0,38.8,31.7,29.0,0000.0,0017.39,0008.37,0007.18
2022-08-20 18:02:00,,0830.4,4.99,0.00,30.0,27.9,00.0,38.8,31.7,28.6,0000.0,0017.31,0008.41,0007.17
2022-08-20 18:03:00,,0830.4,5.00,0.00,30.0,28.1,00.0,38.8,31.8,28.8,0000.0,0017.37,0008.36,0007.14
2022-08-20 18:04:00,,0830.4,5.00,0.00,30.0,28.2,00.0,38.8,31.8,28.7,0000.0,0017.37,0008.37,0007.13
2022-08-20 18:05:00,,0830.4,5.00,0.00,30.0,28.4,00.0,38.8,31.9,29.1,0000.0,0018.01,0008.38,0007.12
2022-08-20 18:06:00,,0830.4,5.00,0.00,30.0,28.5,00.0,38.8,31.9,29.0,0000.0,0017.73,0008.32,0007.08
2022-08-20 18:07:00,,0830.4,5.00,0.00,30.0,28.7,00.0,38.8,31.9,29.2,0000.0,0018.17,0008.24,0007.03
2022-08-20 18:08:00,,0830.4,5.00,0.00,30.0,28.8,00.0,38.8,32.0,28.4,0000.0,0018.93,0008.22,0007.00
2022-08-20 18:09:00,,0830.4,5.00,0.00,30.1,28.9,00.0,38.8,32.0,28.4,0000.0,0018.81,0008.21,0006.98
2022-08-20 18:10:00,,0830.4,4.99,0.00,30.1,29.0,00.0,38.8,32.0,28.7,0000.0,0018.35,0008.24,0006.95
2022-08-20 18:11:00,,0830.4,5.00,0.00,30.1,29.1,00.0,38.9,32.1,28.6,0000.0,0017.88,0008.23,0006.94
2022-08-20 18:12:00,,0830.4,5.00,0.00,30.2,29.2,00.0,38.9,32.1,28.4,0000.0,0017.54,0008.20,0006.93
2022-08-20 18:13:00,,0830.3,5.00,0.00,30.2,29.3,00.0,38.9,32.2,28.7,0000.0,0016.71,0008.11,0006.91
2022-08-20 18:14:00,,0830.4,5.00,0.00,30.2,29.0,00.0,38.9,32.1,28.9,0000.0,0016.38,0008.11,0006.92
2022-08-20 18:15:00,,0830.3,5.01,0.00,30.2,28.4,00.0,38.8,31.9,29.3,0000.0,0016.21,0008.08,0006.91
2022-08-20 18:16:00,,0830.3,4.99,0.00,30.1,27.9,00.0,38.8,31.8,29.2,0000.0,0014.81,0008.00,0006.90
2022-08-20 18:17:00,,0830.2,5.00,0.00,30.0,27.8,00.0,38.8,31.7,29.0,0000.0,0014.54,0008.01,0006.92
2022-08-20 18:18:00,,0830.3,5.00,0.00,30.0,27.8,00.0,38.8,31.7,29.9,0000.0,0014.54,0008.07,0006.94
2022-08-20 18:19:00,,0830.3,5.00,0.00,29.9,28.0,00.0,38.8,31.7,28.8,0000.0,0014.04,0008.08,0006.95
2022-08-20 18:20:00,,0830.2,5.01,0.00,29.9,28.1,00.0,38.8,31.8,29.2,0000.0,0014.09,0008.06,0006.93
2022-08-20 18:21:00,,0830.2,4.99,0.00,29.9,28.3,00.0,38.8,31.8,29.1,0000.0,0013.99,0008.03,0006.93
2022-08-20 18:22:00,,0830.2,5.00,0.00,30.0,28.4,00.0,38.8,31.9,29.0,0000.0,0014.38,0008.02,0006.94
2022-08-20 18:23:00,,0830.2,5.00,0.00,30.0,28.6,00.0,38.8,31.9,29.0,0000.0,0015.07,0008.04,0006.94
2022-08-20 18:24:00,,0830.2,5.00,0.00,30.0,28.7,00.0,38.8,31.9,29.2,0000.0,0015.39,0008.04,0006.95
2022-08-20 18:25:00,,0830.2,5.01,0.00,30.0,28.9,00.0,38.8,32.0,29.6,0000.0,0015.29,0007.98,0006.94
2022-08-20 18:26:00,,0830.2,5.00,0.00,30.1,29.0,00.0,38.8,32.0,28.9,0000.0,0015.81,0007.98,0006.95
2022-08-20 18:27:00,,0830.2,4.99,0.00,30.1,29.1,00.0,38.8,32.1,29.1,0000.0,0015.80,0008.06,0006.96
2022-08-20 18:28:00,,0830.2,5.00,0.00,30.1,29.2,00.0,38.8,32.1,28.8,0000.0,0016.50,0008.07,0006.98
2022-08-20 18:29:00,,0830.2,5.00,0.00,30.1,28.9,00.0,38.8,32.0,28.7,0000.2,0015.94,0008.06,0006.99
2022-08-20 18:30:00,,0830.2,5.01,0.00,30.1,28.2,00.0,38.8,31.8,29.0,0000.0,0015.80,0008.09,0007.01
2022-08-20 18:31:00,,0830.1,5.00,0.00,30.0,27.8,00.0,38.8,31.7,29.0,0000.0,0015.63,0008.11,0007.04
2022-08-20 18:32:00,,0830.1,5.00,0.00,30.0,27.7,00.0,38.7,31.7,29.3,0001.0,0015.73,0008.11,0007.06
2022-08-20 18:33:00,,0830.1,5.00,0.00,29.9,27.8,00.0,38.7,31.7,29.3,0000.9,0015.51,0008.13,0007.06
2022-08-20 18:34:00,,0830.1,5.00,0.00,29.9,28.0,00.0,38.7,31.7,29.2,0000.8,0015.39,0008.13,0007.06
2022-08-20 18:35:00,,0830.2,5.00,0.00,29.9,28.1,00.0,38.7,31.8,29.3,0000.9,0015.37,0008.22,0007.08
2022-08-20 18:36:00,,0830.1,5.01,0.00,29.9,28.3,00.0,38.7,31.8,28.9,0000.5,0015.67,0008.25,0007.10
2022-08-20 18:37:00,,0830.1,5.00,0.00,29.9,28.5,00.0,38.7,31.8,29.6,0000.1,0015.16,0008.22,0007.10
2022-08-20 18:38:00,,0830.1,4.99,0.00,30.0,28.6,00.0,38.7,31.9,28.6,0000.0,0015.00,0008.20,0007.10
2022-08-20 18:39:00,,0830.1,5.01,0.00,30.0,28.7,00.0,38.7,31.9,28.6,0000.2,0014.69,0008.19,0007.09
2022-08-20 18:40:00,,0830.1,5.01,0.00,30.0,28.9,00.0,38.8,32.0,29.0,0000.0,0014.90,0008.20,0007.08
2022-08-20 18:41:00,,0830.1,5.00,0.00,30.0,29.0,00.0,38.8,32.0,28.5,-000.3,0014.87,0008.15,0007.07
2022-08-20 18:42:00,,0830.1,5.00,0.00,30.1,29.1,00.0,38.8,32.0,28.6,-000.1,0014.87,0008.14,0007.07
2022-08-20 18:43:00,,0830.0,4.99,0.00,30.1,29.2,00.0,38.8,32.1,28.7,0000.1,0015.00,0008.15,0007.05
2022-08-20 18:44:00,,0830.0,5.00,0.00,30.1,28.9,00.0,38.8,32.0,28.7,0000.1,0015.37,0008.15,0007.06
2022-08-20 18:45:00,,0829.9,5.01,0.00,30.1,28.1,00.0,38.8,31.8,28.8,0000.0,0014.94,0008.15,0007.07
2022-08-20 18:46:00,,0829.9,5.00,0.00,30.0,27.7,00.0,38.7,31.7,29.3,0000.0,0014.83,0008.07,0007.06
2022-08-20 18:47:00,,0829.8,5.00,0.00,29.9,27.6,00.0,38.7,31.6,29.2,0000.3,0014.71,0008.09,0007.08
2022-08-20 18:48:00,,0829.9,5.00,0.00,29.9,27.7,00.0,38.7,31.6,30.2,0000.5,0014.33,0008.12,0007.10
2022-08-20 18:49:00,,0829.9,5.00,0.00,29.8,27.9,00.0,38.7,31.6,29.8,0000.7,0014.42,0008.14,0007.11
2022-08-20 18:50:00,,0829.8,5.00,0.00,29.8,28.1,00.0,38.7,31.7,29.4,0000.6,0014.52,0008.16,0007.12
2022-08-20 18:51:00,,0829.9,5.01,0.00,29.9,28.2,00.0,38.7,31.8,30.2,0000.1,0015.24,0008.15,0007.13
2022-08-20 18:52:00,,0829.9,4.99,0.00,29.9,28.4,00.0,38.7,31.8,29.7,0000.0,0015.78,0008.21,0007.12
2022-08-20 18:53:00,,0829.8,5.00,0.00,29.9,28.5,00.0,38.7,31.8,29.4,0000.0,0016.28,0008.23,0007.13
2022-08-20 18:54:00,,0829.9,5.00,0.00,29.9,28.7,00.0,38.7,31.9,29.5,0000.0,0016.45,0008.20,0007.15
2022-08-20 18:55:00,,0829.8,5.01,0.00,30.0,28.8,00.0,38.7,31.9,29.4,0000.0,0017.94,0008.20,0007.17
2022-08-20 18:56:00,,0829.7,4.98,0.00,30.0,28.9,00.0,38.7,32.0,29.2,0000.0,0018.23,0008.17,0007.17
2022-08-20 18:57:00,,0829.8,5.00,0.00,30.0,29.0,00.0,38.7,32.0,28.2,0000.0,0018.33,0008.14,0007.16
2022-08-20 18:58:00,,0829.7,5.01,0.00,30.1,29.1,00.0,38.8,32.0,27.6,0000.0,0018.46,0008.13,0007.14
2022-08-20 18:59:00,,0829.8,5.00,0.00,30.1,29.1,00.0,38.8,32.0,27.8,0000.0,0018.43,0008.07,0007.12
